This is the latest recevied weather packets stored in our database for station/object OE9FWV-10. If no packets are shown the sender has not sent any weather packets the latest 10 day(s).
| Time | Temp. | Humidity | Pressure | Rain* | Wind** | Luminosity | Snow |
|---|---|---|---|---|---|---|---|
| 1787871229 | 31.11° C | 28% | 1015.4 hPa | - | - | - | - |
| 1787870329 | 31.11° C | 28% | 1015.7 hPa | - | - | - | - |
| 1787869429 | 31.11° C | 27% | 1015.5 hPa | - | - | - | - |
| 1787868529 | 31.11° C | 27% | 1015.6 hPa | - | - | - | - |
| 1787867629 | 31.11° C | 27% | 1015.9 hPa | - | - | - | - |
| 1787866729 | 31.11° C | 27% | 1015.6 hPa | - | - | - | - |
| 1787865829 | 31.11° C | 27% | 1015.7 hPa | - | - | - | - |
| 1787864929 | 31.11° C | 28% | 1015.8 hPa | - | - | - | - |
| 1787864029 | 31.11° C | 27% | 1015.7 hPa | - | - | - | - |
| 1787863128 | 31.11° C | 27% | 1015.7 hPa | - | - | - | - |
| 1787862228 | 31.11° C | 27% | 1015.6 hPa | - | - | - | - |
| 1787861328 | 31.11° C | 27% | 1015.7 hPa | - | - | - | - |
| 1787860428 | 31.11° C | 27% | 1015.6 hPa | - | - | - | - |
| 1787859528 | 30.56° C | 26% | 1015.6 hPa | - | - | - | - |
| 1787858628 | 30.56° C | 25% | 1015.7 hPa | - | - | - | - |
| 1787857728 | 31.11° C | 25% | 1015.6 hPa | - | - | - | - |
| 1787856828 | 31.11° C | 25% | 1015.5 hPa | - | - | - | - |
| 1787855928 | 31.11° C | 25% | 1015.3 hPa | - | - | - | - |
| 1787855028 | 31.67° C | 25% | 1015.4 hPa | - | - | - | - |
| 1787854128 | 31.11° C | 25% | 1015.2 hPa | - | - | - | - |
| 1787853228 | 31.67° C | 24% | 1015.1 hPa | - | - | - | - |
| 1787852328 | 31.67° C | 24% | 1015.1 hPa | - | - | - | - |
| 1787851428 | 32.22° C | 24% | 1015.1 hPa | - | - | - | - |
| 1787850527 | 32.22° C | 24% | 1015.2 hPa | - | - | - | - |
| 1787849627 | 32.22° C | 24% | 1015.2 hPa | - | - | - | - |
* Rain since midnight (hover to see other rain measurements)
** Current wind speed in m/s (hover to see current wind gust speed)